VTK601 RJAA-ZSHC

Flight info

Callsign VTK601
Flight time N/A
Altitude 36000
Route SZE Y295 KCC Y28 BIWWA V28 MIDER Y28 CLIPA/N0454F380 Y28 ISAKY Y592 POTET A593 LAMEN/K0843F380 A593 AKARA/K0841S1160 A593 DUMET W114 LASAN G327 NINAS B221 OKTUG OKTUG91
Aircraft A21N/M-SDE2E3FGHIRWXY/LB1

Departure

Time N/A
Airport Narita International Airport (RJAA)

Arrival

Time 2026-04-27 15:30
Airport Hangzhou Xiaoshan International Airport (ZSHC)
Time Latitude Longitude Altitude Speed Heading
2026-04-27 15:09 30.75967 122.11194 35961 ft 414 kts 242°
2026-04-27 15:09 30.74418 122.08402 35605 ft 409 kts 242°
2026-04-27 15:09 30.72873 122.05635 34974 ft 408 kts 242°
2026-04-27 15:09 30.71326 122.02872 34256 ft 407 kts 242°
2026-04-27 15:10 30.69780 122.00117 33446 ft 407 kts 241°
2026-04-27 15:10 30.68229 121.97358 32589 ft 409 kts 241°
2026-04-27 15:10 30.66668 121.94583 31735 ft 411 kts 241°
2026-04-27 15:10 30.65117 121.91825 30896 ft 414 kts 240°
2026-04-27 15:11 30.63539 121.89020 30056 ft 416 kts 240°
2026-04-27 15:11 30.61949 121.86199 29049 ft 419 kts 240°
2026-04-27 15:11 30.60352 121.83369 28058 ft 420 kts 240°
2026-04-27 15:11 30.58747 121.80521 27052 ft 422 kts 239°
2026-04-27 15:12 30.57130 121.77665 26029 ft 425 kts 239°
2026-04-27 15:12 30.55504 121.74786 25027 ft 426 kts 239°
2026-04-27 15:12 30.53883 121.71917 24163 ft 425 kts 239°
2026-04-27 15:12 30.52269 121.69063 23373 ft 422 kts 238°
2026-04-27 15:13 30.50662 121.66235 22536 ft 419 kts 238°
2026-04-27 15:13 30.49071 121.63426 21966 ft 420 kts 239°
2026-04-27 15:13 30.47423 121.60532 21565 ft 430 kts 238°
2026-04-27 15:13 30.45821 121.57715 21072 ft 419 kts 238°
2026-04-27 15:14 30.44234 121.54914 20422 ft 412 kts 238°
2026-04-27 15:14 30.42674 121.52165 19761 ft 405 kts 238°
2026-04-27 15:14 30.41133 121.49457 19110 ft 400 kts 238°
2026-04-27 15:14 30.39614 121.46787 18470 ft 393 kts 238°
2026-04-27 15:15 30.38119 121.44160 17715 ft 387 kts 238°
2026-04-27 15:15 30.36640 121.41565 17013 ft 386 kts 238°
2026-04-27 15:15 30.35167 121.38980 16395 ft 383 kts 238°
2026-04-27 15:15 30.33715 121.36410 15816 ft 379 kts 238°
2026-04-27 15:16 30.32278 121.33864 15266 ft 376 kts 238°
2026-04-27 15:16 30.30851 121.31339 14725 ft 374 kts 238°
2026-04-27 15:16 30.29432 121.28831 14265 ft 371 kts 238°
2026-04-27 15:16 30.28022 121.26342 13829 ft 369 kts 238°
2026-04-27 15:17 30.26619 121.23865 13338 ft 367 kts 238°
2026-04-27 15:17 30.25192 121.21440 12739 ft 364 kts 235°
2026-04-27 15:17 30.23689 121.19080 12210 ft 364 kts 234°
2026-04-27 15:17 30.22198 121.16761 11789 ft 353 kts 234°
2026-04-27 15:18 30.20763 121.14532 11532 ft 338 kts 234°
2026-04-27 15:18 30.19413 121.12434 11298 ft 320 kts 234°
2026-04-27 15:18 30.18124 121.10429 10968 ft 302 kts 234°
2026-04-27 15:18 30.16904 121.08534 10607 ft 286 kts 234°
2026-04-27 15:19 30.15739 121.06722 10337 ft 278 kts 233°
2026-04-27 15:19 30.14591 121.04937 10091 ft 275 kts 233°
2026-04-27 15:19 30.13453 121.03169 9765 ft 274 kts 233°
2026-04-27 15:19 30.12312 121.01396 9363 ft 275 kts 233°
2026-04-27 15:20 30.11167 120.99616 8973 ft 277 kts 233°
2026-04-27 15:20 30.10060 120.97795 8585 ft 277 kts 240°
2026-04-27 15:20 30.09423 120.95707 8232 ft 277 kts 262°
2026-04-27 15:20 30.09553 120.93499 7888 ft 277 kts 284°
2026-04-27 15:21 30.10170 120.91425 7573 ft 277 kts 290°
2026-04-27 15:21 30.10864 120.89348 7229 ft 277 kts 290°
2026-04-27 15:21 30.11549 120.87267 6870 ft 278 kts 289°
2026-04-27 15:21 30.12223 120.85169 6511 ft 279 kts 289°
2026-04-27 15:22 30.12870 120.83082 6272 ft 270 kts 289°
2026-04-27 15:22 30.13476 120.81083 6161 ft 256 kts 289°
2026-04-27 15:22 30.14047 120.79212 6202 ft 239 kts 289°
2026-04-27 15:22 30.14596 120.77413 6217 ft 237 kts 289°
2026-04-27 15:23 30.15239 120.75664 6154 ft 237 kts 303°
2026-04-27 15:23 30.16409 120.74347 5991 ft 236 kts 329°
2026-04-27 15:23 30.17871 120.73492 5759 ft 235 kts 335°
2026-04-27 15:23 30.19348 120.72694 5493 ft 233 kts 335°
2026-04-27 15:24 30.20806 120.71883 5217 ft 232 kts 334°
2026-04-27 15:24 30.22250 120.71062 4952 ft 230 kts 334°
2026-04-27 15:24 30.23678 120.70238 4688 ft 229 kts 334°
2026-04-27 15:24 30.25096 120.69412 4398 ft 227 kts 334°
2026-04-27 15:25 30.26506 120.68589 4122 ft 227 kts 334°
2026-04-27 15:25 30.27909 120.67769 3859 ft 226 kts 334°
2026-04-27 15:25 30.29305 120.66949 3602 ft 224 kts 334°
2026-04-27 15:25 30.30672 120.66146 3339 ft 224 kts 334°
2026-04-27 15:26 30.32036 120.65288 3189 ft 224 kts 326°
2026-04-27 15:26 30.33045 120.63929 3169 ft 227 kts 294°
2026-04-27 15:26 30.33226 120.62132 3185 ft 230 kts 261°
2026-04-27 15:26 30.32693 120.60388 3051 ft 230 kts 244°
2026-04-27 15:27 30.31900 120.58789 2791 ft 228 kts 239°
2026-04-27 15:27 30.31093 120.57231 2500 ft 220 kts 240°
2026-04-27 15:27 30.30394 120.55744 2274 ft 202 kts 244°
2026-04-27 15:27 30.29771 120.54336 1995 ft 191 kts 243°
2026-04-27 15:28 30.29177 120.52990 1731 ft 185 kts 243°
2026-04-27 15:28 30.28606 120.51693 1508 ft 175 kts 243°
2026-04-27 15:28 30.28068 120.50470 1287 ft 161 kts 244°
2026-04-27 15:28 30.27579 120.49362 1065 ft 151 kts 244°
2026-04-27 15:29 30.27108 120.48293 872 ft 150 kts 244°
2026-04-27 15:29 30.26635 120.47219 690 ft 150 kts 245°
2026-04-27 15:29 30.26166 120.46154 500 ft 146 kts 245°
2026-04-27 15:29 30.25720 120.45149 289 ft 137 kts 245°
2026-04-27 15:30 30.25298 120.44181 132 ft 136 kts 245°
2026-04-27 15:30 30.24876 120.43228 39 ft 125 kts 244°
2026-04-27 15:30 30.24561 120.42491 35 ft 71 kts 244°
2026-04-27 15:30 30.24435 120.42274 37 ft 21 kts 212°
2026-04-27 15:31 30.24373 120.42228 37 ft 9 kts 214°
2026-04-27 15:31 30.24331 120.42193 37 ft 13 kts 217°
2026-04-27 15:31 30.24241 120.42111 38 ft 19 kts 206°
2026-04-27 15:31 30.24111 120.42142 37 ft 21 kts 149°
2026-04-27 15:32 30.24049 120.42196 37 ft 12 kts 123°
2026-04-27 15:32 30.23994 120.42280 37 ft 15 kts 140°
2026-04-27 15:32 30.23960 120.42315 37 ft 0 kts 138°